Klagenfurt, Austria

9:48 AM CET on January 21, 2018 (GMT +0100)
Klagenfurt

Weather History for LOWK - February, 2013

Change the Weather History Date:

Friday, February 1, 2013

  Actual Average Record
Temperature  
Mean Temperature 28 °F -  
Max Temperature 36 °F 40 °F 54 °F (2016)
Min Temperature 19 °F 21 °F 8 °F (1999)
Degree Days  
Heating Degree Days 38    
Moisture  
Dew Point 26 °F    
Average Humidity 90    
Maximum Humidity 100    
Minimum Humidity 71    
Precipitation  
Precipitation 0.00 in 0.05 in - ()
Sea Level Pressure  
Sea Level Pressure 29.82 in    
Wind  
Wind Speed 3 mph ()    
Max Wind Speed 7 mph    
Max Gust Speed -    
Visibility 6.3 miles    
Events Fog    
Averages and records for this station are not official NWS values.
T = Trace of Precipitation, MM = Missing Value Source: Averaged Metar Reports

Daily Weather History Graph

Daily Weather History Graph

Search for Another Location

Airport or City:

Trip Planner

Search our weather history database for the weather conditions in past years. The results will help you decide how hot, cold, wet, or windy it might be!

Date:

Astronomy

Feb. 01, 2013 Rise Set
Actual Time 7:26 AM CET 5:06 PM CET
Civil Twilight 6:54 AM CET 5:38 PM CET
Nautical Twilight 6:18 AM CET 6:15 PM CET
Astronomical Twilight 5:42 AM CET 6:50 PM CET
Moon 11:20 PM CET (2/1) 9:26 AM CET (2/1)
Length of Visible Light 10h 44m
Length of Day
9h 39m
Waning Gibbous, 73% of the Moon is Illuminated
Feb 1
Waning Gibbous
Feb 3
Last Quarter
Feb 10
New
Feb 17
First Quarter
Feb 25
Full

Hourly Weather History & Observations

Time (CET) Temp. Windchill Dew Point Humidity Pressure Visibility Wind Dir Wind Speed Gust Speed Precip Events Conditions
12:20 AM 26.6 °F 22.6 °F 24.8 °F 93% 29.92 in 4.3 mi WNW 3.5 mph - N/A   Unknown
12:50 AM 24.8 °F 20.5 °F 23.0 °F 93% 29.95 in 5.6 mi Variable 3.5 mph - N/A Fog Patches of Fog
1:00 AM 25 °F - 24 °F 92% 30.04 in 6 mi 4.5 mph - -  
1:20 AM 24.8 °F 20.5 °F 23.0 °F 93% 29.95 in 6.2 mi NW 3.5 mph - N/A   Unknown
1:50 AM 24.8 °F 19.1 °F 24.8 °F 100% 29.92 in 6.2 mi WNW 4.6 mph - N/A   Unknown
2:20 AM 26.6 °F 21.2 °F 24.8 °F 93% 29.92 in 6.2 mi SW 4.6 mph - N/A   Partly Cloudy
2:50 AM 23.0 °F - 21.2 °F 93% 29.95 in 5.6 mi Variable 2.3 mph - N/A   Unknown
3:20 AM 23.0 °F 18.4 °F 23.0 °F 100% 29.95 in 6.2 mi NW 3.5 mph - N/A   Unknown
3:50 AM 24.8 °F 16.9 °F 23.0 °F 93% 29.95 in 6.2 mi NW 6.9 mph - N/A   Partly Cloudy
4:00 AM 25 °F - 24 °F 93% 30.04 in 6 mi NW 6.7 mph - -   Scattered Clouds
4:20 AM 24.8 °F 19.1 °F 23.0 °F 93% 29.95 in 6.2 mi East 4.6 mph - N/A   Partly Cloudy
4:50 AM 23.0 °F - 23.0 °F 100% 29.95 in 6.2 mi Variable 1.2 mph - N/A   Scattered Clouds
5:20 AM 19.4 °F - 19.4 °F 100% 29.95 in 6.2 mi Variable 2.3 mph - N/A   Partly Cloudy
5:50 AM 23.0 °F 17.0 °F 21.2 °F 93% 29.95 in 6.2 mi WNW 4.6 mph - N/A   Partly Cloudy
6:20 AM 23.0 °F - 21.2 °F 93% 29.95 in 6.2 mi Variable 2.3 mph - N/A   Partly Cloudy
6:50 AM 23.0 °F - 21.2 °F 93% 29.95 in 4.3 mi NNW 2.3 mph - N/A   Scattered Clouds
7:00 AM 22 °F - 21 °F 96% 30.06 in 4 mi NNW 2.2 mph - -   Scattered Clouds
7:20 AM 23.0 °F 17.0 °F 21.2 °F 93% 29.95 in 4.3 mi WNW 4.6 mph - N/A   Scattered Clouds
7:50 AM 23.0 °F 18.4 °F 21.2 °F 93% 29.95 in 5.0 mi WSW 3.5 mph - N/A   Scattered Clouds
8:20 AM 23.0 °F 15.8 °F 21.2 °F 93% 29.95 in 5.0 mi WNW 5.8 mph - N/A   Mostly Cloudy
8:50 AM 24.8 °F 19.1 °F 23.0 °F 93% 29.95 in 5.0 mi WNW 4.6 mph - N/A   Mostly Cloudy
9:20 AM 24.8 °F - 23.0 °F 93% 29.95 in 5.0 mi Variable 1.2 mph - N/A   Mostly Cloudy
9:50 AM 26.6 °F - 24.8 °F 93% 29.95 in 6.2 mi NE 2.3 mph - N/A   Mostly Cloudy
10:00 AM 27 °F - 24 °F 85% 30.04 in 7 mi NE 2.2 mph - -   Scattered Clouds
10:20 AM 26.6 °F - 24.8 °F 93% 29.92 in 6.2 mi Variable 1.2 mph - N/A   Mostly Cloudy
10:50 AM 30.2 °F - 26.6 °F 86% 29.92 in - Variable 1.2 mph - N/A   Clear
11:20 AM 28.4 °F 23.3 °F 26.6 °F 93% 29.92 in - East 4.6 mph - N/A   Clear
11:50 AM 30.2 °F - 26.6 °F 86% 29.89 in - Variable 2.3 mph - N/A   Clear
12:20 PM 30.2 °F 26.7 °F 26.6 °F 86% 29.89 in - East 3.5 mph - N/A   Clear
12:50 PM 32.0 °F - 28.4 °F 87% 29.86 in - Variable 2.3 mph - N/A   Clear
1:00 PM 32 °F - 28 °F 79% 29.94 in 9 mi 2.2 mph - -   Scattered Clouds
1:20 PM 33.8 °F - 28.4 °F 81% 29.86 in - Variable 1.2 mph - N/A   Clear
1:50 PM 33.8 °F - 28.4 °F 81% 29.83 in - Variable 2.3 mph - N/A   Clear
2:20 PM 33.8 °F - 28.4 °F 81% 29.80 in 6.2 mi Variable 1.2 mph - N/A   Mostly Cloudy
2:50 PM 35.6 °F - 28.4 °F 75% 29.77 in 6.2 mi East 2.3 mph - N/A   Mostly Cloudy
3:20 PM 35.6 °F - 30.2 °F 81% 29.74 in 6.2 mi Variable 2.3 mph - N/A   Mostly Cloudy
3:50 PM 35.6 °F - 28.4 °F 75% 29.74 in 6.2 mi Variable 2.3 mph - N/A   Mostly Cloudy
4:00 PM 35 °F - 29 °F 71% 29.80 in 16 mi 2.2 mph - -   Scattered Clouds
4:20 PM 33.8 °F - 28.4 °F 81% 29.71 in 6.2 mi Variable 2.3 mph - N/A   Mostly Cloudy
4:50 PM 35.6 °F - 28.4 °F 75% 29.71 in 6.2 mi Variable 2.3 mph - N/A   Mostly Cloudy
5:20 PM 32.0 °F - 28.4 °F 87% 29.68 in 6.2 mi Variable 1.2 mph - N/A   Mostly Cloudy
5:50 PM 32.0 °F - 28.4 °F 87% 29.68 in 6.2 mi Variable 1.2 mph - N/A   Mostly Cloudy
6:20 PM 30.2 °F - 28.4 °F 93% 29.68 in 6.2 mi Variable 1.2 mph - N/A   Mostly Cloudy
6:50 PM 30.2 °F - 28.4 °F 93% 29.65 in 6.2 mi NNW 2.3 mph - N/A   Mostly Cloudy
7:00 PM 30 °F - 28 °F 87% 29.73 in 9 mi NNW 2.2 mph - -   Scattered Clouds
7:20 PM 30.2 °F 26.7 °F 28.4 °F 93% 29.62 in 6.2 mi WNW 3.5 mph - N/A   Mostly Cloudy
7:50 PM 30.2 °F 24.3 °F 28.4 °F 93% 29.62 in 6.2 mi WNW 5.8 mph - N/A   Mostly Cloudy
8:20 PM 30.2 °F 25.4 °F 28.4 °F 93% 29.59 in 6.2 mi NW 4.6 mph - N/A   Mostly Cloudy
8:50 PM 30.2 °F - 28.4 °F 93% 29.56 in 6.2 mi Variable 1.2 mph - N/A   Mostly Cloudy
9:20 PM 30.2 °F 26.7 °F 28.4 °F 93% 29.56 in 6.2 mi NW 3.5 mph - N/A   Mostly Cloudy
9:50 PM 30.2 °F - 28.4 °F 93% 29.56 in 6.2 mi Variable 2.3 mph - N/A   Mostly Cloudy
10:00 PM 31 °F - 28 °F 84% 29.63 in 7 mi 2.2 mph - -   Scattered Clouds
10:20 PM 30.2 °F 25.4 °F 28.4 °F 93% 29.53 in 6.2 mi NW 4.6 mph - N/A   Mostly Cloudy
10:50 PM 30.2 °F - 28.4 °F 93% 29.50 in 6.2 mi Variable 2.3 mph - N/A   Mostly Cloudy
11:20 PM 30.2 °F 26.7 °F 28.4 °F 93% 29.50 in 6.2 mi WNW 3.5 mph - N/A   Mostly Cloudy
11:50 PM 30.2 °F 25.4 °F 28.4 °F 93% 29.47 in 6.2 mi WNW 4.6 mph - N/A   Mostly Cloudy